Tracking 17154 objects as of 1-August-2015
HD Live streaming from Space Station

CZ-2D DEB

Track CZ-2D DEB now!
10-day predictions
CZ-2D DEB is classified as:


NORAD ID: 35272
Int'l Code: 2005-024L
Perigee: 520.0 km
Apogee: 541.5 km
Inclination: 97.6 °
Period: 95.1 minutes
Semi major axis: 6901 km
RCS: 0.0215 m2 (small)
Launch date: July 5, 2005
Source: People's Republic of China (PRC)

Note: This is SATELLITE DEBRIS
Your satellite tracking list
Your tracking list is empty





NASA's NSSDC Master Catalog

Two Line Element Set (TLE):
1 35272U 05024L   15212.87550032  .00001465  00000-0  83953-4 0  9999
2 35272 097.6455 243.5112 0015614 069.7205 056.6895 15.14129513533980

Source of the keplerian elements: AFSPC

N2YO: 278